| time (UTC) | temp C | wind direction | speed KPH | gust KPH | rain 1hr cm | rain 24hr cm | rain mn cm | humidity % | barometer mb |
| 20260506132003 | 8 | 107 | 0.0 | 0.0 | 0.00 | 3.10 | 3.68 | 100 | 992.0 |
| 20260506073413 | 12 | 135 | 0.0 | 0.0 | 0.05 | 0.76 | 1.85 | 100 | 984.5 |
| 20260506070359 | 12 | 128 | 6.4 | 6.4 | 0.05 | 0.76 | 1.85 | 100 | 984.6 |
| 20260506061335 | 12 | 139 | 1.6 | 0.0 | 0.18 | 0.76 | 1.83 | 100 | 985.2 |
| 20260506060330 | 12 | 30 | 0.0 | 0.0 | 0.18 | 0.76 | 1.80 | 100 | 985.2 |
| 20260506051306 | 12 | 30 | 0.0 | 0.0 | 0.28 | 0.76 | 1.70 | 100 | 985.4 |
| 20260506050804 | 12 | 30 | 0.0 | 0.0 | 0.28 | 0.76 | 1.68 | 100 | 985.5 |
| 20260506044754 | 12 | 30 | 0.0 | 0.0 | 0.48 | 0.76 | 1.57 | 100 | 985.5 |
| 20260506025159 | 12 | 30 | 0.0 | 0.0 | 0.15 | 0.76 | 0.86 | 100 | 986.5 |
| 20260506022145 | 12 | 30 | 0.0 | 0.0 | 0.15 | 0.76 | 0.48 | 100 | 986.9 |
| 20260506015633 | 12 | 30 | 0.0 | 0.0 | 0.15 | 0.76 | 0.30 | 100 | 986.8 |
| 20260506015131 | 12 | 30 | 0.0 | 0.0 | 0.00 | 0.76 | 0.25 | 100 | 986.9 |
| 20260506013625 | 12 | 30 | 0.0 | 0.0 | 0.00 | 0.76 | 0.18 | 100 | 987.0 |
| 20260506013121 | 12 | 30 | 0.0 | 0.0 | 0.00 | 0.76 | 0.15 | 100 | 986.9 |
| 20260506011615 | 12 | 30 | 0.0 | 0.0 | 0.00 | 0.76 | 0.10 | 100 | 987.2 |
| 20260506010610 | 12 | 30 | 0.0 | 0.0 | 0.00 | 0.76 | 0.10 | 100 | 987.3 |
| 20260506005605 | 12 | 30 | 0.0 | 0.0 | 0.00 | 0.76 | 0.10 | 100 | 987.4 |
| 20260506004600 | 12 | 30 | 0.0 | 0.0 | 0.10 | 0.76 | 0.10 | 100 | 987.4 |
| 20260506003555 | 12 | 30 | 0.0 | 0.0 | 0.10 | 0.76 | 0.10 | 100 | 987.5 |
| 20260506003053 | 12 | 30 | 0.0 | 0.0 | 0.10 | 0.76 | 0.10 | 100 | 987.5 |
| 20260506002550 | 12 | 30 | 0.0 | 0.0 | 0.10 | 0.76 | 0.10 | 100 | 987.6 |